This is the latest recevied weather packets stored in our database for station/object N7ZAP. If no packets are shown the sender has not sent any weather packets the latest 10 day(s).
| Time | Temp. | Humidity | Pressure | Rain* | Wind** | Luminosity | Snow |
|---|---|---|---|---|---|---|---|
| 1777429323 | 22.22° C | 9% | 1015.4 hPa | 0 mm | - | - | - |
| 1777429017 | 21.67° C | 8% | 1015.2 hPa | 0 mm | - | - | - |
| 1777428715 | 21.67° C | 9% | 1014.9 hPa | 0 mm | - | - | - |
| 1777428410 | 22.22° C | 12% | 1014.9 hPa | 0 mm | - | - | - |
| 1777428106 | 22.22° C | 10% | 1014.8 hPa | 0 mm | - | - | - |
| 1777427802 | 21.67° C | 12% | 1014.9 hPa | 0 mm | - | - | - |
| 1777427499 | 22.22° C | 15% | 1014.9 hPa | 0 mm | - | - | - |
| 1777427194 | 22.78° C | 14% | 1014.5 hPa | 0 mm | - | - | - |
| 1777426893 | 23.33° C | 14% | 1014.6 hPa | 0 mm | - | - | - |
| 1777426590 | 24.44° C | 14% | 1014.4 hPa | 0 mm | - | - | - |
| 1777426286 | 24.44° C | 13% | 1014.5 hPa | 0 mm | - | - | - |
| 1777425981 | 25° C | 11% | 1014.5 hPa | 0 mm | - | - | - |
| 1777425675 | 25° C | 11% | 1014.4 hPa | 0 mm | - | - | - |
| 1777425371 | 25.56° C | 10% | 1014.6 hPa | 0 mm | - | - | - |
| 1777425068 | 25.56° C | 10% | 1014.5 hPa | 0 mm | - | - | - |
| 1777424764 | 26.11° C | 10% | 1014.2 hPa | 0 mm | - | - | - |
| 1777424459 | 26.11° C | 9% | 1014.5 hPa | 0 mm | - | - | - |
| 1777424155 | 26.11° C | 9% | 1014.4 hPa | 0 mm | - | - | - |
| 1777423853 | 26.67° C | 9% | 1014.5 hPa | 0 mm | - | - | - |
| 1777423549 | 26.67° C | 9% | 1014.5 hPa | 0 mm | - | - | - |
| 1777423244 | 26.67° C | 9% | 1014.5 hPa | 0 mm | - | - | - |
| 1777422944 | 26.67° C | 8% | 1014.6 hPa | 0 mm | - | - | - |
| 1777422640 | 26.67° C | 8% | 1014.2 hPa | 0 mm | - | - | - |
| 1777422335 | 27.22° C | 8% | 1014.4 hPa | 0 mm | - | - | - |
| 1777422030 | 27.22° C | 8% | 1014.1 hPa | 0 mm | - | - | - |
* Rain latest hour (hover to see other rain measurements)
** Current wind speed in m/s (hover to see current wind gust speed)